Weather History for PAWG - February, 2014

Change the Weather History Date:

Tuesday, February 25, 2014

  Actual Average Record
Temperature  
Mean Temperature 30 °F -  
Max Temperature 37 °F 40 °F 51 °F (1988)
Min Temperature 24 °F 29 °F 10 °F (1972)
Degree Days  
Heating Degree Days 34    
Moisture  
Dew Point 16 °F    
Average Humidity 51    
Maximum Humidity 59    
Minimum Humidity 44    
Precipitation  
Precipitation 0.00 in - - ()
Sea Level Pressure  
Sea Level Pressure 30.16 in    
Wind  
Wind Speed 3 mph (North)    
Max Wind Speed 8 mph    
Max Gust Speed -    
Visibility 10 miles    
Events      
Averages and records for this station are not official NWS values.
T = Trace of Precipitation, MM = Missing Value Source: NWS Daily Summary

Daily Weather History Graph

Daily Weather History Graph

Search for Another Location

Airport or City:

Trip Planner

Search our weather history database for the weather conditions in past years. The results will help you decide how hot, cold, wet, or windy it might be!

Date:

Astronomy

Feb. 25, 2014 Rise Set
Actual Time 6:51 AM AKST 5:14 PM AKST
Civil Twilight 6:13 AM AKST 5:52 PM AKST
Nautical Twilight 5:29 AM AKST 6:36 PM AKST
Astronomical Twilight 4:45 AM AKST 7:20 PM AKST
Moon 4:25 AM AKST (2/25) 12:57 PM AKST (2/25)
Length of Visible Light 11h 39m
Length of Day
10h 23m
Waning Crescent, 17% of the Moon is Illuminated
Feb 25
Waning Crescent
Feb 28
New
Mar 8
First Quarter
Mar 16
Full
Mar 23
Last Quarter

Hourly Weather History & Observations

Time (AKST) Temp. Windchill Dew Point Humidity Pressure Visibility Wind Dir Wind Speed Gust Speed Precip Events Conditions
12:16 AM 24.8 °F - 10.4 °F 54% 30.20 in 10.0 mi Calm Calm - N/A   Clear
12:36 AM 26.6 °F - 12.2 °F 55% 30.20 in 10.0 mi Calm Calm - N/A   Clear
12:56 AM 28.4 °F 22.2 °F 15.8 °F 59% 30.20 in 10.0 mi ENE 5.8 mph - N/A   Clear
1:16 AM 26.6 °F - 12.2 °F 55% 30.19 in 10.0 mi Calm Calm - N/A   Clear
1:36 AM 26.6 °F - 12.2 °F 55% 30.19 in 10.0 mi Calm Calm - N/A   Clear
1:56 AM 24.8 °F - 12.2 °F 59% 30.19 in 10.0 mi Calm Calm - N/A   Clear
2:16 AM 26.6 °F - 12.2 °F 55% 30.19 in 10.0 mi Calm Calm - N/A   Clear
2:36 AM 26.6 °F - 12.2 °F 55% 30.19 in 10.0 mi Calm Calm - N/A   Clear
2:56 AM 26.6 °F - 12.2 °F 55% 30.19 in 10.0 mi Calm Calm - N/A   Clear
3:16 AM 26.6 °F - 12.2 °F 55% 30.19 in 10.0 mi Calm Calm - N/A   Clear
3:36 AM 28.4 °F 22.2 °F 14.0 °F 55% 30.19 in 10.0 mi North 5.8 mph - N/A   Clear
3:56 AM 28.4 °F 24.6 °F 12.2 °F 51% 30.19 in 10.0 mi NE 3.5 mph - N/A   Clear
4:16 AM 28.4 °F - 14.0 °F 55% 30.19 in 10.0 mi Calm Calm - N/A   Clear
4:36 AM 26.6 °F - 12.2 °F 55% 30.18 in 10.0 mi Calm Calm - N/A   Clear
4:56 AM 26.6 °F - 10.4 °F 51% 30.18 in 10.0 mi Calm Calm - N/A   Clear
5:16 AM 24.8 °F - 10.4 °F 54% 30.19 in 10.0 mi Calm Calm - N/A   Clear
5:36 AM 26.6 °F - 10.4 °F 51% 30.19 in 10.0 mi Calm Calm - N/A   Clear
5:56 AM 26.6 °F 21.2 °F 12.2 °F 55% 30.19 in 10.0 mi NNW 4.6 mph - N/A   Clear
6:16 AM 26.6 °F 22.6 °F 12.2 °F 55% 30.19 in 10.0 mi North 3.5 mph - N/A   Clear
6:36 AM 28.4 °F 24.6 °F 15.8 °F 59% 30.19 in 10.0 mi ENE 3.5 mph - N/A   Clear
6:56 AM 28.4 °F 24.6 °F 12.2 °F 51% 30.19 in 10.0 mi NE 3.5 mph - N/A   Clear
7:16 AM 28.4 °F 24.6 °F 12.2 °F 51% 30.20 in 10.0 mi NE 3.5 mph - N/A   Clear
7:36 AM 28.4 °F - 12.2 °F 51% 30.20 in 10.0 mi Calm Calm - N/A   Clear
7:56 AM 30.2 °F 25.4 °F 14.0 °F 51% 30.20 in 10.0 mi East 4.6 mph - N/A   Clear
8:16 AM 30.2 °F 26.7 °F 14.0 °F 51% 30.20 in 10.0 mi East 3.5 mph - N/A   Clear
8:36 AM 30.2 °F 26.7 °F 12.2 °F 47% 30.20 in 10.0 mi NE 3.5 mph - N/A   Clear
8:56 AM 30.2 °F 26.7 °F 14.0 °F 51% 30.20 in 10.0 mi NNE 3.5 mph - N/A   Clear
9:16 AM 32.0 °F 28.7 °F 15.8 °F 51% 30.20 in 10.0 mi North 3.5 mph - N/A   Clear
9:36 AM 30.2 °F 26.7 °F 14.0 °F 51% 30.20 in 10.0 mi North 3.5 mph - N/A   Clear
9:56 AM 32.0 °F 26.4 °F 14.0 °F 48% 30.20 in 10.0 mi NNW 5.8 mph - N/A   Clear
10:16 AM 32.0 °F 26.4 °F 14.0 °F 48% 30.20 in 10.0 mi NNW 5.8 mph - N/A   Clear
10:36 AM 32.0 °F 26.4 °F 14.0 °F 48% 30.21 in 10.0 mi NNW 5.8 mph - N/A   Clear
10:56 AM 33.8 °F 28.6 °F 14.0 °F 44% 30.21 in 10.0 mi NNW 5.8 mph - N/A   Clear
11:16 AM 33.8 °F 29.6 °F 14.0 °F 44% 30.21 in 10.0 mi North 4.6 mph - N/A   Clear
11:36 AM 33.8 °F 28.6 °F 14.0 °F 44% 30.20 in 10.0 mi North 5.8 mph - N/A   Clear
11:56 AM 33.8 °F 29.6 °F 14.0 °F 44% 30.20 in 10.0 mi North 4.6 mph - N/A   Partly Cloudy
12:16 PM 33.8 °F 28.6 °F 15.8 °F 48% 30.19 in 10.0 mi NW 5.8 mph - N/A   Partly Cloudy
12:36 PM 33.8 °F 29.6 °F 14.0 °F 44% 30.19 in 10.0 mi North 4.6 mph - N/A   Partly Cloudy
12:56 PM 35.6 °F 31.7 °F 15.8 °F 44% 30.18 in 10.0 mi North 4.6 mph - N/A   Partly Cloudy
1:16 PM 35.6 °F 32.8 °F 17.6 °F 48% 30.18 in 10.0 mi North 3.5 mph - N/A   Partly Cloudy
1:36 PM 35.6 °F 30.7 °F 17.6 °F 48% 30.17 in 10.0 mi North 5.8 mph - N/A   Partly Cloudy
1:56 PM 35.6 °F 30.7 °F 17.6 °F 48% 30.17 in 10.0 mi NNW 5.8 mph - N/A   Mostly Cloudy
2:16 PM 35.6 °F 30.7 °F 15.8 °F 44% 30.17 in 10.0 mi NNW 5.8 mph - N/A   Mostly Cloudy
2:36 PM 35.6 °F 32.8 °F 17.6 °F 48% 30.16 in 10.0 mi NNW 3.5 mph - N/A   Mostly Cloudy
2:56 PM 37.4 °F 32.8 °F 17.6 °F 45% 30.16 in 10.0 mi North 5.8 mph - N/A   Mostly Cloudy
3:16 PM 37.4 °F 32.8 °F 17.6 °F 45% 30.16 in 10.0 mi NNW 5.8 mph - N/A   Mostly Cloudy
3:36 PM 35.6 °F 29.2 °F 17.6 °F 48% 30.15 in 10.0 mi NNW 8.1 mph - N/A   Mostly Cloudy
3:56 PM 35.6 °F 29.9 °F 17.6 °F 48% 30.15 in 10.0 mi NNW 6.9 mph - N/A   Mostly Cloudy
4:16 PM 35.6 °F 31.7 °F 17.6 °F 48% 30.15 in 10.0 mi NW 4.6 mph - N/A   Mostly Cloudy
4:36 PM 35.6 °F 31.7 °F 17.6 °F 48% 30.14 in 10.0 mi NNW 4.6 mph - N/A   Mostly Cloudy
4:56 PM 35.6 °F 31.7 °F 17.6 °F 48% 30.14 in 10.0 mi NNW 4.6 mph - N/A   Mostly Cloudy
5:16 PM 35.6 °F - 17.6 °F 48% 30.14 in 10.0 mi Calm Calm - N/A   Mostly Cloudy
5:36 PM 35.6 °F 30.7 °F 17.6 °F 48% 30.14 in 10.0 mi North 5.8 mph - N/A   Mostly Cloudy
5:56 PM 35.6 °F 30.7 °F 19.4 °F 52% 30.13 in 10.0 mi North 5.8 mph - N/A   Mostly Cloudy
6:16 PM 35.6 °F 32.8 °F 19.4 °F 52% 30.13 in 10.0 mi North 3.5 mph - N/A   Mostly Cloudy
6:36 PM 35.6 °F - 19.4 °F 52% 30.12 in 10.0 mi Calm Calm - N/A   Mostly Cloudy
6:56 PM 35.6 °F - 19.4 °F 52% 30.12 in 10.0 mi Calm Calm - N/A   Mostly Cloudy
7:16 PM 35.6 °F 31.7 °F 19.4 °F 52% 30.11 in 10.0 mi NNW 4.6 mph - N/A   Mostly Cloudy
7:36 PM 35.6 °F - 19.4 °F 52% 30.11 in 10.0 mi Calm Calm - N/A   Mostly Cloudy
7:56 PM 33.8 °F 30.8 °F 17.6 °F 52% 30.10 in 10.0 mi West 3.5 mph - N/A   Mostly Cloudy
8:16 PM 35.6 °F 31.7 °F 19.4 °F 52% 30.10 in 10.0 mi NNW 4.6 mph - N/A   Mostly Cloudy
8:36 PM 35.6 °F 31.7 °F 19.4 °F 52% 30.10 in 10.0 mi NNW 4.6 mph - N/A   Mostly Cloudy
8:56 PM 35.6 °F 30.7 °F 19.4 °F 52% 30.10 in 10.0 mi NNW 5.8 mph - N/A   Mostly Cloudy
9:16 PM 35.6 °F 30.7 °F 19.4 °F 52% 30.09 in 10.0 mi NW 5.8 mph - N/A   Mostly Cloudy
9:36 PM 35.6 °F 31.7 °F 19.4 °F 52% 30.09 in 10.0 mi NNW 4.6 mph - N/A   Mostly Cloudy
9:56 PM 35.6 °F - 17.6 °F 48% 30.09 in 10.0 mi Calm Calm - N/A   Mostly Cloudy
10:16 PM 35.6 °F 31.7 °F 19.4 °F 52% 30.09 in 10.0 mi North 4.6 mph - N/A   Mostly Cloudy
10:36 PM 35.6 °F 32.8 °F 19.4 °F 52% 30.08 in 10.0 mi North 3.5 mph - N/A   Mostly Cloudy
10:56 PM 33.8 °F 30.8 °F 19.4 °F 56% 30.07 in 10.0 mi WNW 3.5 mph - N/A   Mostly Cloudy
11:16 PM 35.6 °F 30.7 °F 19.4 °F 52% 30.07 in 10.0 mi NNW 5.8 mph - N/A   Clear
11:36 PM 35.6 °F 32.8 °F 17.6 °F 48% 30.07 in 10.0 mi NNW 3.5 mph - N/A   Mostly Cloudy
11:56 PM 35.6 °F 31.7 °F 19.4 °F 52% 30.06 in 10.0 mi North 4.6 mph - N/A   Mostly Cloudy